Simultaneous Nadir Overpasses (SNOs) Predictions

Prediction of SNOs between GOES-17 and METOP-B Satellite Orbit:

Table of predicted SNOs for the next 14.0 days since TLE Epoch: 10/17/2020
Index Date Time (GOES-17) GOES-17 Lat,Lon METOP-B Lat,Lon Distance(km) Time Diff (sec)
1 10/17/2020 18:38:34 -0.05,-137.21 -0.12,-136.82 44.19 80
2 10/19/2020 06:57:36 0.05,-137.20 -0.90,-141.42 480.13 80
3 10/20/2020 06:36:57 0.04,-137.20 0.24,-136.43 88.44 80
4 10/21/2020 18:53:09 -0.04,-137.19 0.78,-140.99 432.46 80
5 10/22/2020 18:35:10 -0.04,-137.18 -0.30,-135.99 135.76 80
6 10/24/2020 06:54:11 0.03,-137.16 -0.71,-140.59 389.44 80
7 10/25/2020 06:30:52 0.03,-137.15 0.37,-135.59 178.59 80
8 10/26/2020 18:49:44 -0.03,-137.14 0.66,-140.14 342.91 80
9 10/27/2020 18:31:46 -0.03,-137.13 -0.48,-135.16 224.98 80
10 10/29/2020 06:50:46 0.03,-137.11 -0.57,-139.74 300.62 80
11 10/30/2020 06:27:27 0.02,-137.09 0.57,-134.76 266.97 80
